"Pseudo-MPEC" for ZTs0032

Created 2023 Jan 26 14:22:24 UT using Find_Orb

Click here for an explanation of pseudo-MPECs

 
 Astrometry: 
     ZTs0032* C2023 01 07.29686107 36 39.109+53 50 16.78   ~17FM 15.12RUNEOCPI41
     ZTs0032  C2023 01 07.29720807 36 41.505+53 52 09.13   ~17FM 15.12RUNEOCPI41
     ZTs0032  C2023 01 07.47461508 02 11.563+66 22 52.35   ~17FM 16.42gUNEOCPI41
     ZTs0032  C2023 01 07.47496208 02 15.538+66 23 59.49   ~17FM 16.42gUNEOCPI41

Station data:
(I41) Palomar Mountain--ZTF  (N33.357338 W116.859780)  US/California.
   Observers B. T. Bolin, Z. T. F. Collaboration. Measurers B. T. Bolin,
   Z.-Y. Lin, F. J. Masci. 1.2-m f/2.4 Schmidt.

Orbital elements:  ZTs0032
   Perigee 2023 Jan 6.97333 +/- 22.6 TT = 23:21:35 (JD 2459951.47333)
Epoch 2023 Jan  7.0 TT = JDT 2459951.5                           AutoNEOCP
q152437.064 +/- 2.24e+6             (J2000 equator)
H   28.62 G 0.15                    Peri.   14.81312 +/- 25
                                    Node    99.93172 +/- 0.08
e   6.3087842 +/- 0.182             Incl.   80.16278 +/- 10
From 4 observations 2023 Jan. 7 (4.3 hr); mean residual 0".83
Residuals in arcseconds: 
230107 I41  .27+  1.2+    230107 I41  .30-  1.1-    
230107 I41  .27-  1.2-    230107 I41  .30+  1.1+    

Ephemerides (geocentric):
Date (UTC) HH   RA             Dec           delta  r     elong  mag " sig PA
---- --------  ------------   ------------  ------ ------ -----  --- --------
2023 01 26 14  17 09 20.371   +66 02 23.15  .04192 .98769  93.0 24.7  18d 160
2023 01 26 15  17 09 20.644   +66 02 16.30  .04201 .98770  93.0 24.7  17d 163
2023 01 26 16  17 09 20.910   +66 02 09.48  .04209 .98771  93.0 24.7  17d 167
2023 01 26 17  17 09 21.169   +66 02 02.69  .04218 .98773  93.0 24.7  17d 171
2023 01 26 18  17 09 21.423   +66 01 55.95  .04226 .98774  93.0 24.7  17d 175
2023 01 26 19  17 09 21.670   +66 01 49.24  .04235 .98775  93.0 24.7 992' 179
2023 01 26 20  17 09 21.911   +66 01 42.57  .04243 .98777  93.0 24.7 983'   3
2023 01 26 21  17 09 22.147   +66 01 35.94  .04251 .98778  93.0 24.7 976'   7
2023 01 26 22  17 09 22.376   +66 01 29.34  .04260 .98779  93.0 24.7 970'  12
2023 01 26 23  17 09 22.599   +66 01 22.78  .04268 .98781  93.0 24.8 964'  15
2023 01 27 00  17 09 22.816   +66 01 16.25  .04277 .98782  93.0 24.8 957'  19
2023 01 27 01  17 09 23.027   +66 01 09.76  .04285 .98783  93.0 24.8 948'  23
2023 01 27 02  17 09 23.232   +66 01 03.31  .04294 .98785  93.0 24.8 936'  27
2023 01 27 03  17 09 23.432   +66 00 56.89  .04302 .98786  93.0 24.8 917'  32
2023 01 27 04  17 09 23.626   +66 00 50.50  .04310 .98788  93.0 24.8 888'  37
2023 01 27 05  17 09 23.813   +66 00 44.15  .04319 .98789  93.0 24.8 850'  42
2023 01 27 06  17 09 23.996   +66 00 37.83  .04327 .98790  93.0 24.8 809'  47
2023 01 27 07  17 09 24.172   +66 00 31.55  .04336 .98792  93.0 24.8 774'  51
2023 01 27 08  17 09 24.343   +66 00 25.30  .04344 .98793  93.0 24.8 751'  53
2023 01 27 09  17 09 24.508   +66 00 19.08  .04353 .98795  93.0 24.8 740'  54
2023 01 27 10  17 09 24.668   +66 00 12.89  .04361 .98796  93.0 24.8 740'  55
2023 01 27 11  17 09 24.822   +66 00 06.74  .04369 .98797  93.0 24.8 752'  56
2023 01 27 12  17 09 24.970   +66 00 00.62  .04378 .98799  93.0 24.8 776'  57
2023 01 27 13  17 09 25.113   +65 59 54.53  .04386 .98800  93.0 24.8 812'  59
2023 01 27 14  17 09 25.251   +65 59 48.48  .04395 .98802  93.0 24.8 863'  62
2023 01 27 15  17 09 25.383   +65 59 42.45  .04403 .98803  93.0 24.8 927'  65
2023 01 27 16  17 09 25.510   +65 59 36.46  .04411 .98804  93.0 24.8  17d  68
2023 01 27 17  17 09 25.632   +65 59 30.50  .04420 .98806  93.0 24.8  18d  70
2023 01 27 18  17 09 25.748   +65 59 24.56  .04428 .98807  93.0 24.8  20d  73
2023 01 27 19  17 09 25.859   +65 59 18.66  .04437 .98809  93.0 24.8  22d  74
2023 01 27 20  17 09 25.965   +65 59 12.79  .04445 .98810  93.0 24.8  24d  76
2023 01 27 21  17 09 26.065   +65 59 06.95  .04453 .98811  93.0 24.8  26d  77
2023 01 27 22  17 09 26.161   +65 59 01.14  .04462 .98813  93.1 24.8  27d  78
2023 01 27 23  17 09 26.251   +65 58 55.36  .04470 .98814  93.1 24.8  29d  78
2023 01 28 00  17 09 26.337   +65 58 49.61  .04478 .98816  93.1 24.9  31d  79
2023 01 28 01  17 09 26.417   +65 58 43.88  .04487 .98817  93.1 24.9  33d  79
2023 01 28 02  17 09 26.492   +65 58 38.19  .04495 .98819  93.1 24.9  34d  79
2023 01 28 03  17 09 26.562   +65 58 32.53  .04504 .98820  93.1 24.9  36d  79
2023 01 28 04  17 09 26.628   +65 58 26.89  .04512 .98822  93.1 24.9  37d  78
2023 01 28 05  17 09 26.688   +65 58 21.28  .04520 .98823  93.1 24.9  39d  77
2023 01 28 06  17 09 26.744   +65 58 15.70  .04529 .98824  93.1 24.9  40d  75
2023 01 28 07  17 09 26.795   +65 58 10.15  .04537 .98826  93.1 24.9  41d  72
2023 01 28 08  17 09 26.841   +65 58 04.62  .04545 .98827  93.1 24.9  41d  69
2023 01 28 09  17 09 26.882   +65 57 59.13  .04554 .98829  93.1 24.9  42d  67
2023 01 28 10  17 09 26.918   +65 57 53.66  .04562 .98830  93.1 24.9  42d  65
2023 01 28 11  17 09 26.950   +65 57 48.22  .04570 .98832  93.1 24.9  41d  63
2023 01 28 12  17 09 26.977   +65 57 42.80  .04579 .98833  93.1 24.9  41d  62
2023 01 28 13  17 09 26.999   +65 57 37.41  .04587 .98835  93.1 24.9  40d  61